• In Germany
  • List of Countries
  • For 7 days
  • Water Temperature
  • Satellite Maps
  • Weather Map
  • Weather Widgets
  • user-avatar
    Login

    Hourly Weather Sankt Polten

    Today, 23 March, Thursday

    Time Temperature Precipitation Wind Pressure Humidity
    00:00 +6°C° 0 mm 1 mps 734 mmHg 97%
    01:00 +5°C° 0 mm 2 mps 734 mmHg 97%
    02:00 +6°C° 0 mm 1 mps 734 mmHg 97%
    03:00 +6°C° 0 mm 1 mps 734 mmHg 97%
    04:00 +6°C° 0 mm 1 mps 734 mmHg 97%
    05:00 +6°C° 0 mm 1 mps 734 mmHg 97%
    06:00 +6°C° 0 mm 1 mps 734 mmHg 96%
    07:00 +7°C° 0 mm 1 mps 734 mmHg 96%
    08:00 +8°C° 0 mm 1 mps 735 mmHg 92%
    09:00 +10°C° 0 mm 1 mps 735 mmHg 87%
    10:00 +12°C° 0 mm 1 mps 735 mmHg 83%
    11:00 +12°C° 0 mm 1 mps 735 mmHg 80%
    12:00 +13°C° 0 mm 1 mps 735 mmHg 78%
    13:00 +14°C° 0 mm 1 mps 735 mmHg 75%
    14:00 +15°C° 0 mm 1 mps 735 mmHg 75%
    15:00 +15°C° 0 mm 1 mps 735 mmHg 75%
    16:00 +15°C° 0 mm 1 mps 735 mmHg 75%
    17:00 +13°C° 0 mm 1 mps 735 mmHg 81%
    18:00 +11°C° 0 mm 1 mps 735 mmHg 88%
    19:00 +9°C° 0 mm 1 mps 735 mmHg 94%
    20:00 +8°C° 0 mm 1 mps 736 mmHg 95%
    21:00 +8°C° 0 mm 1 mps 736 mmHg 95%
    22:00 +7°C° 0 mm 1 mps 736 mmHg 95%
    23:00 +7°C° 0 mm 1 mps 737 mmHg 95%

    Tomorrow, 24 March, Friday

    Time Temperature Precipitation Wind Pressure Humidity
    00:00 +7°C° 0 mm 1 mps 737 mmHg 95%
    01:00 +7°C° 0 mm 1 mps 737 mmHg 95%
    02:00 +6°C° 0 mm 1 mps 738 mmHg 95%
    03:00 +6°C° 0 mm 1 mps 738 mmHg 95%
    04:00 +6°C° 0 mm 1 mps 738 mmHg 96%
    05:00 +7°C° 0 mm 1 mps 739 mmHg 95%
    06:00 +7°C° 0 mm 1 mps 739 mmHg 95%
    07:00 +8°C° 0 mm 1 mps 740 mmHg 94%
    08:00 +10°C° 0 mm 1 mps 740 mmHg 87%
    09:00 +12°C° 0 mm 2 mps 740 mmHg 80%
    10:00 +14°C° 0 mm 2 mps 741 mmHg 74%
    11:00 +15°C° 0 mm 2 mps 741 mmHg 72%
    12:00 +15°C° 0 mm 2 mps 741 mmHg 70%
    13:00 +16°C° 0 mm 2 mps 741 mmHg 68%
    14:00 +15°C° 0 mm 2 mps 741 mmHg 71%
    15:00 +14°C° 0 mm 3 mps 741 mmHg 74%
    16:00 +13°C° 0 mm 3 mps 742 mmHg 77%
    17:00 +12°C° 0 mm 3 mps 742 mmHg 82%
    18:00 +10°C° 0 mm 2 mps 742 mmHg 87%
    19:00 +9°C° 0 mm 2 mps 743 mmHg 92%
    20:00 +9°C° 0 mm 2 mps 743 mmHg 92%
    21:00 +8°C° 0 mm 2 mps 743 mmHg 92%
    22:00 +7°C° 0 mm 3 mps 744 mmHg 91%
    23:00 +7°C° 0 mm 2 mps 744 mmHg 92%

    Day after tomorrow, 25 March, Saturday

    Time Temperature Precipitation Wind Pressure Humidity
    00:00 +6°C° 0 mm 2 mps 744 mmHg 92%
    01:00 +5°C° 0 mm 2 mps 744 mmHg 93%
    02:00 +5°C° 0 mm 2 mps 744 mmHg 93%
    03:00 +4°C° 0 mm 2 mps 743 mmHg 94%
    04:00 +3°C° 0 mm 2 mps 743 mmHg 94%
    05:00 +4°C° 0 mm 2 mps 743 mmHg 92%
    06:00 +4°C° 0 mm 2 mps 743 mmHg 90%
    07:00 +4°C° 0 mm 2 mps 743 mmHg 87%
    08:00 +6°C° 0 mm 2 mps 743 mmHg 81%
    09:00 +7°C° 0 mm 2 mps 743 mmHg 74%
    10:00 +9°C° 0 mm 2 mps 743 mmHg 68%
    11:00 +10°C° 0 mm 3 mps 742 mmHg 65%
    12:00 +11°C° 0 mm 3 mps 742 mmHg 61%
    13:00 +12°C° 0 mm 3 mps 741 mmHg 58%
    14:00 +12°C° 0 mm 3 mps 740 mmHg 60%
    15:00 +13°C° 0 mm 2 mps 740 mmHg 61%
    16:00 +13°C° 0 mm 2 mps 739 mmHg 62%
    17:00 +10°C° 0 mm 2 mps 739 mmHg 69%
    18:00 +8°C° 0 mm 2 mps 738 mmHg 76%
    19:00 +6°C° 0 mm 2 mps 738 mmHg 83%
    20:00 +6°C° 0 mm 1 mps 738 mmHg 84%
    21:00 +6°C° 0 mm 1 mps 738 mmHg 85%
    22:00 +5°C° 0 mm 1 mps 737 mmHg 86%
    23:00 +5°C° 0 mm 1 mps 737 mmHg 86%

    26 March, Sunday

    Time Temperature Precipitation Wind Pressure Humidity
    00:00 +4°C° 0 mm 1 mps 736 mmHg 86%
    01:00 +4°C° 0 mm 1 mps 736 mmHg 86%
    02:00 +4°C° 0 mm 1 mps 735 mmHg 87%
    03:00 +4°C° 0 mm 1 mps 735 mmHg 87%
    04:00 +3°C° 0 mm 1 mps 734 mmHg 88%
    05:00 +4°C° 0 mm 1 mps 734 mmHg 86%
    06:00 +4°C° 0 mm 2 mps 734 mmHg 85%
    07:00 +4°C° 0 mm 2 mps 734 mmHg 83%
    08:00 +6°C° 0 mm 2 mps 734 mmHg 78%
    09:00 +7°C° 0 mm 3 mps 734 mmHg 73%
    10:00 +9°C° 0 mm 3 mps 734 mmHg 68%
    11:00 +8°C° 0.4 mm 3 mps 734 mmHg 72%
    12:00 +8°C° 0.4 mm 3 mps 734 mmHg 76%
    13:00 +7°C° 0.4 mm 3 mps 733 mmHg 80%
    14:00 +7°C° 0.5 mm 3 mps 733 mmHg 80%
    15:00 +7°C° 0.5 mm 3 mps 734 mmHg 81%
    16:00 +7°C° 0.5 mm 3 mps 734 mmHg 81%
    17:00 +5°C° 0.3 mm 3 mps 734 mmHg 84%
    18:00 +4°C° 0.3 mm 3 mps 735 mmHg 88%
    19:00 +4°C° 0.3 mm 2 mps 736 mmHg 92%
    20:00 +4°C° 0.1 mm 2 mps 736 mmHg 92%
    21:00 +3°C° 0.1 mm 2 mps 737 mmHg 93%
    22:00 +3°C° 0.1 mm 2 mps 738 mmHg 94%
    23:00 +3°C° 0 mm 2 mps 738 mmHg 94%

    27 March, Monday

    Time Temperature Precipitation Wind Pressure Humidity
    00:00 +2°C° 0 mm 2 mps 738 mmHg 95%
    01:00 +2°C° 0 mm 2 mps 738 mmHg 96%
    02:00 +1°C° 0 mm 2 mps 739 mmHg 96%
    03:00 +1°C° 0 mm 2 mps 739 mmHg 96%
    04:00 +1°C° 0 mm 2 mps 739 mmHg 97%
    05:00 +1°C° 0 mm 2 mps 739 mmHg 95%
    06:00 +1°C° 0 mm 2 mps 740 mmHg 94%
    07:00 +2°C° 0 mm 2 mps 740 mmHg 92%
    08:00 +3°C° 0 mm 2 mps 740 mmHg 87%
    09:00 +2°C° 0 mm 3 mps 740 mmHg 82%
    10:00 +3°C° 0 mm 3 mps 740 mmHg 78%
    11:00 +3°C° 0.1 mm 3 mps 740 mmHg 76%
    12:00 +4°C° 0.1 mm 3 mps 740 mmHg 75%
    13:00 +4°C° 0.1 mm 3 mps 739 mmHg 73%
    14:00 +5°C° 0.1 mm 2 mps 739 mmHg 73%
    15:00 +5°C° 0.1 mm 2 mps 739 mmHg 72%
    16:00 +5°C° 0.1 mm 2 mps 739 mmHg 72%
    17:00 +4°C° 0.1 mm 2 mps 739 mmHg 78%
    18:00 +4°C° 0.1 mm 1 mps 739 mmHg 84%
    19:00 +3°C° 0.1 mm 1 mps 739 mmHg 90%
    20:00 +3°C° 0 mm 1 mps 740 mmHg 91%
    21:00 +2°C° 0 mm 1 mps 740 mmHg 92%
    22:00 +2°C° 0 mm 1 mps 740 mmHg 92%
    23:00 +2°C° 0 mm 1 mps 740 mmHg 93%

    28 March, Tuesday

    Time Temperature Precipitation Wind Pressure Humidity
    00:00 +1°C° 0 mm 1 mps 740 mmHg 94%
    01:00 +1°C° 0 mm 1 mps 740 mmHg 94%
    02:00 0°C° 0 mm 1 mps 740 mmHg 94%
    03:00 0°C° 0 mm 1 mps 739 mmHg 95%
    04:00 0°C° 0 mm 1 mps 739 mmHg 95%
    05:00 +1°C° 0 mm 1 mps 739 mmHg 92%
    06:00 +2°C° 0 mm 1 mps 740 mmHg 89%
    07:00 +3°C° 0 mm 1 mps 740 mmHg 86%
    08:00 +4°C° 0 mm 1 mps 740 mmHg 78%
    09:00 +6°C° 0 mm 1 mps 740 mmHg 71%
    10:00 +8°C° 0 mm 1 mps 740 mmHg 63%
    11:00 +8°C° 0 mm 2 mps 740 mmHg 60%
    12:00 +9°C° 0 mm 2 mps 739 mmHg 57%
    13:00 +10°C° 0 mm 2 mps 739 mmHg 54%
    14:00 +10°C° 0 mm 2 mps 739 mmHg 56%
    15:00 +11°C° 0 mm 1 mps 739 mmHg 57%
    16:00 +11°C° 0 mm 1 mps 738 mmHg 59%
    17:00 +8°C° 0 mm 1 mps 738 mmHg 68%
    18:00 +6°C° 0 mm 1 mps 738 mmHg 78%
    19:00 +3°C° 0 mm 1 mps 739 mmHg 87%
    20:00 +3°C° 0 mm 1 mps 739 mmHg 87%
    21:00 +3°C° 0 mm 1 mps 739 mmHg 87%
    22:00 +2°C° 0 mm 1 mps 739 mmHg 87%
    23:00 +2°C° 0 mm 1 mps 740 mmHg 87%
    Show more